Location: D�nning
(49.2479°N, 12.8491°E)
Time: 06:04:28
(UTC+00:00)

SPOT 3 Rocket - Pass Details

Date: 18 September 2020
Orbit: 779 x 794 km, 98.8° (Epoch: 22 October)

Event Time Altitude Azimuth Distance (km) Brightness Sun altitude
Exits shadow 18:22:59 16° 115° (ESE) 1,956 5.0 -11.8°
Maximum altitude 18:26:19 31° 62° (ENE) 1,347 4.4 -12.4°
Drops below altitude 10° 18:30:48 10° 2° (N) 2,346 6.2 -13.1°
Sets 18:33:20 0° 353° (N) 3,279 7.1 -13.4°
